This demonstration page uses our WeatherBlox Daily Observations layout. Learn more.

Left ArrowRight Arrow

41.55636, -103.73856

Hourly Observations for February 19, 2016

Temp ( °F °C ) Dew Point ( °F °C ) Humidity (%) Winds ( mph kmh ) Pressure ( in mb ) Visibility ( mi km ) Precip ( " mm )
12:53 am 00:53 Clear 43 6.1 19 -7.2 38 38 W 24 39 29.69 1005 10 16.0934 N/A
1:53 am 01:53 Clear 43 6.1 20 -6.7 40 40 W 33 54 29.72 1007 10 16.0934 N/A
2:53 am 02:53 Clear 43 6.1 20 -6.7 40 40 WNW 29 46 29.71 1006 10 16.0934 N/A
3:53 am 03:53 Clear 44 6.7 19 -7.2 37 37 WNW 36 57 29.73 1007 10 16.0934 N/A
4:53 am 04:53 Clear 44 6.7 18 -7.8 35 35 WNW 30 48 29.77 1008 10 16.0934 N/A
5:53 am 05:53 Clear 44 6.7 19 -7.2 37 37 WNW 24 39 29.83 1010 10 16.0934 N/A
6:53 am 06:53 Sunny 43 6.1 19 -7.2 38 38 WNW 22 35 29.88 1012 10 16.0934 N/A
7:53 am 07:53 Sunny 46 7.8 19 -7.2 34 34 W 31 50 29.89 1012 10 16.0934 N/A
8:53 am 08:53 Sunny 49 9.4 18 -7.8 29 29 W 32 52 29.91 1013 10 16.0934 N/A
9:53 am 09:53 Sunny 53 11.7 17 -8.3 24 24 W 30 48 29.91 1013 10 16.0934 N/A
10:53 am 10:53 Sunny 54 12.2 17 -8.3 23 23 WNW 26 43 29.91 1013 10 16.0934 N/A
11:53 am 11:53 Sunny 57 13.9 16 -8.9 20 20 WNW 22 35 29.89 1012 10 16.0934 N/A
12:53 pm 12:53 Sunny 60 15.6 13 -10.6 16 16 WNW 23 37 29.87 1012 10 16.0934 N/A
1:53 pm 13:53 Sunny 61 16.1 9 -12.8 13 13 W 24 39 29.84 1011 10 16.0934 N/A
2:53 pm 14:53 Sunny 62 16.7 7 -13.9 11 11 WNW 21 33 29.84 1011 10 16.0934 N/A
3:53 pm 15:53 Sunny 61 16.1 5 -15 10 10 WNW 14 22 29.84 1011 10 16.0934 N/A
4:53 pm 16:53 Sunny 55 12.8 9 -12.8 16 16 W 8 13 29.86 1011 10 16.0934 N/A
5:53 pm 17:53 Clear 50 10 11 -11.7 21 21 N 6 9 29.89 1012 10 16.0934 N/A
6:53 pm 18:53 Clear 48 8.9 12 -11.1 23 23 S 10 17 29.91 1013 10 16.0934 N/A
7:53 pm 19:53 Clear 45 7.2 12 -11.1 26 26 SSE 5 7 29.91 1013 10 16.0934 N/A
8:53 pm 20:53 Clear 45 7.2 12 -11.1 26 26 SSW 3 6 29.92 1013 10 16.0934 N/A
9:53 pm 21:53 Clear 34 1.1 17 -8.3 50 50 N 3 6 29.92 1013 10 16.0934 N/A
10:53 pm 22:53 Clear 38 3.3 18 -7.8 44 44 E 5 7 29.92 1013 10 16.0934 N/A
11:53 pm 23:53 Clear 34 1.1 20 -6.7 56 56 N N/A 29.94 1014 10 16.0934 N/A

Powered by AerisWeather